Weather History for Laramie, WY

Change the Weather History Date:

Thursday, February 14, 2013

  Actual Average Record
Temperature  
Mean Temperature 19 °F 23 °F  
Max Temperature 28 °F 35 °F 54 °F (1981)
Min Temperature 9 °F 12 °F -14 °F (1951)
Degree Days  
Heating Degree Days 46 42  
Month to date heating degree days 586 598  
Since 1 July heating degree days 5247 5613  
Cooling Degree Days 0 0  
Month to date cooling degree days 0 0  
Year to date cooling degree days 0 0  
Moisture  
Dew Point 13 °F    
Average Humidity 79    
Maximum Humidity 96    
Minimum Humidity 62    
Precipitation  
Precipitation T in 0.01 in 0.22 in (1984)
Month to date precipitation 0.03 0.16  
Year to date precipitation 0.18 0.43  
Sea Level Pressure  
Sea Level Pressure 30.15 in    
Wind  
Wind Speed 11 mph (NNW)    
Max Wind Speed 25 mph    
Max Gust Speed 33 mph    
Visibility 6 miles    
Events Snow    
T = Trace of Precipitation, MM = Missing Value Source: NWS Daily Summary

Daily Weather History Graph

Daily Weather History Graph

Search for Another Location

Airport:

Trip Planner

Search our weather history database for the weather conditions in past years. The results will help you decide how hot, cold, wet, or windy it might be!

Date:

Astronomy

Feb. 14, 2013 Rise Set
Actual Time 6:58 AM MST 5:35 PM MST
Civil Twilight 6:30 AM MST 6:04 PM MST
Nautical Twilight 5:57 AM MST 6:36 PM MST
Astronomical Twilight 5:25 AM MST 7:08 PM MST
Moon 8:58 AM MST (2/14) 10:45 PM MST (2/14)
Length of Visible Light 11h 34m
Length of Day
10h 37m
Waxing Crescent, 22% of the Moon is Illuminated
Feb 14
Waxing Crescent
Feb 17
First Quarter
Feb 25
Full
Mar 4
Last Quarter
Mar 11
New

Hourly Weather History & Observations

Time (MST) Temp. Windchill Dew Point Humidity Pressure Visibility Wind Dir Wind Speed Gust Speed Precip Events Conditions
12:53 AM 26.1 °F 14.5 °F 15.1 °F 63% 30.01 in - West 13.8 mph 17.3 mph N/A   Overcast
1:53 AM 25.0 °F 11.7 °F 15.1 °F 66% 30.00 in - SW 17.3 mph 21.9 mph N/A   Scattered Clouds
2:53 AM 25.0 °F 11.7 °F 15.1 °F 66% 30.00 in - West 17.3 mph - N/A   Scattered Clouds
3:53 AM 24.1 °F 11.5 °F 14.0 °F 65% 30.00 in - WSW 15.0 mph - N/A   Overcast
5:53 AM 24.1 °F 15.2 °F 15.1 °F 69% 30.06 in - West 8.1 mph - N/A   Overcast
6:53 AM 24.1 °F 14.4 °F 16.0 °F 71% 30.09 in - North 9.2 mph - N/A   Overcast
7:53 AM 21.9 °F 8.7 °F 19.0 °F 89% 30.15 in - North 15.0 mph - 0.00 in Snow Light Snow
8:01 AM 21.2 °F 7.8 °F 19.4 °F 93% 30.04 in - NNW 15.0 mph - 0.00 in Snow Snow
8:14 AM 21.2 °F 9.5 °F 19.4 °F 93% 30.04 in - NNW 11.5 mph 21.9 mph 0.00 in Snow Snow
8:21 AM 21.2 °F 9.5 °F 19.4 °F 93% 30.04 in - NNW 11.5 mph - 0.00 in Snow Light Snow
8:48 AM 21.2 °F 7.8 °F 19.4 °F 93% 30.05 in - NNW 15.0 mph - 0.00 in Snow Light Snow
8:53 AM 23.0 °F 9.2 °F 19.0 °F 85% 30.15 in - NNW 17.3 mph - 0.00 in Snow Light Snow
9:01 AM 21.2 °F 7.8 °F 19.4 °F 93% 30.05 in - NNW 15.0 mph - 0.00 in Snow Light Snow
9:09 AM 23.0 °F 9.6 °F 17.6 °F 80% 30.05 in - NNW 16.1 mph - 0.00 in Snow Light Snow
9:28 AM 21.2 °F 6.8 °F 17.6 °F 86% 30.06 in - NNW 17.3 mph - 0.00 in Snow Light Snow
9:34 AM 21.2 °F 5.6 °F 17.6 °F 86% 30.06 in - North 20.7 mph - 0.00 in Snow Light Snow
9:44 AM 19.4 °F 3.2 °F 17.6 °F 93% 30.07 in - North 20.7 mph - 0.00 in Snow Light Snow
9:53 AM 18.0 °F 0.9 °F 14.0 °F 84% 30.18 in - North 21.9 mph - 0.00 in Snow Light Snow
10:22 AM 17.6 °F 1.3 °F 12.2 °F 79% 30.09 in - North 19.6 mph - 0.00 in Snow Light Snow
10:48 AM 17.6 °F 2.2 °F 12.2 °F 79% 30.12 in - North 17.3 mph - 0.00 in   Mostly Cloudy
10:53 AM 17.1 °F 1.5 °F 12.0 °F 81% 30.23 in - North 17.3 mph - 0.00 in Snow Light Snow
10:55 AM 17.1 °F 1.5 °F 12.0 °F 81% 30.23 in 10.0 mi North 17.3 mph - 0.00 in Snow Light Snow
11:40 AM 15.8 °F -1.5 °F 12.2 °F 86% 30.12 in 1.0 mi North 20.7 mph 27.6 mph N/A Snow Light Snow
11:41 AM 15.8 °F -1.5 °F 12.2 °F 86% 30.12 in - North 20.7 mph 27.6 mph 0.00 in Snow Snow
11:53 AM 15.1 °F -2.5 °F 10.9 °F 84% 30.26 in - North 20.7 mph - 0.00 in Snow Light Snow
11:59 AM 15.8 °F -2.3 °F 10.4 °F 79% 30.13 in - North 23.0 mph 29.9 mph 0.00 in Snow Light Snow
12:06 PM 15.8 °F -1.5 °F 10.4 °F 79% 30.13 in - North 20.7 mph 29.9 mph 0.00 in Snow Light Snow
12:13 PM 15.8 °F -0.2 °F 10.4 °F 79% 30.13 in - North 17.3 mph 26.5 mph 0.00 in   Overcast
12:26 PM 17.6 °F 2.7 °F 10.4 °F 73% 30.13 in - North 16.1 mph 24.2 mph 0.00 in   Overcast
12:53 PM 17.1 °F 2.5 °F 10.9 °F 77% 30.24 in - North 15.0 mph - 0.00 in   Overcast
1:08 PM 15.8 °F 0.9 °F 12.2 °F 86% 30.12 in - North 15.0 mph - 0.00 in Snow Light Snow
1:26 PM 15.8 °F -1.1 °F 10.4 °F 79% 30.12 in - NNW 19.6 mph 24.2 mph 0.00 in Snow Light Snow
1:53 PM 17.1 °F 2.0 °F 10.0 °F 74% 30.24 in - North 16.1 mph - 0.00 in   Scattered Clouds
2:53 PM 17.1 °F 3.0 °F 10.9 °F 77% 30.26 in - North 13.8 mph - N/A   Clear
3:53 PM 16.0 °F 1.1 °F 10.0 °F 77% 30.27 in - North 15.0 mph - N/A   Overcast
4:53 PM 15.1 °F 3.3 °F 9.0 °F 77% 30.28 in - North 9.2 mph - N/A   Overcast
5:53 PM 14.0 °F 6.5 °F 9.0 °F 80% 30.29 in - North 4.6 mph - N/A   Overcast
6:53 PM 14.0 °F - 9.0 °F 80% 30.30 in - Calm Calm - N/A   Overcast
7:53 PM 12.9 °F 5.2 °F 10.0 °F 88% 30.30 in - WSW 4.6 mph - 0.00 in Snow Light Snow
8:42 PM 14.0 °F 8.2 °F 10.4 °F 86% 30.15 in - SW 3.5 mph - 0.00 in Snow Light Snow
8:53 PM 14.0 °F - 10.9 °F 88% 30.29 in - Calm Calm - 0.00 in Snow Light Snow
9:53 PM 14.0 °F - 12.0 °F 92% 30.32 in - Calm Calm - 0.00 in Snow Light Snow
10:53 PM 10.9 °F 2.9 °F 9.0 °F 92% 30.34 in - West 4.6 mph - 0.00 in   Overcast
11:53 PM 12.0 °F 4.1 °F 10.0 °F 92% 30.34 in - SSW 4.6 mph - 0.00 in   Overcast